Location: Losili
(4.4086°N, 32.7049°E)
Time: 21:39:32
(UTC+00:00)

Lacrosse 4 Rocket - Pass Details

Date: 18 September 2019
Orbit: 544 x 615 km, 68.0° (Epoch: 16 October)

Event Time Altitude Azimuth Distance (km) Brightness Sun altitude
Rises 16:20:20 0° 358° (N) 2,691 4.9 -9.1°
Reaches altitude 10° 16:22:43 10° 10° (N) 1,804 3.9 -9.7°
Maximum altitude 16:26:14 29° 71° (ENE) 1,025 2.2 -10.5°
Drops below altitude 10° 16:29:48 10° 132° (SE) 1,830 3.5 -11.4°
Enters shadow 16:29:58 - 133° (SE) 1,891 3.6 -11.5°
